GFSNW_sfc_thetae_105.txt.gz
Theta_e
306 306 307 307 307 305 302 297 286 301 305 287 288 285 287 290 288 292 288 286 290 291 292 291 291 290 297 302 301 294 297 293 284 287 291 297 297 294 294 288 286 289 288 289
305 306 307 307 306 304 299 290 289 299 300 283 283 288 286 289 288 289 287 287 293 296 292 289 293 294 301 302 299 296 295 289 280 282 287 291 292 295 296 295 291 288 286 289
305 306 306 306 305 304 300 294 283 290 292 293 287 285 285 285 291 290 289 287 287 294 292 295 292 292 299 301 299 298 297 292 289 284 288 290 287 292 294 294 288 289 289 293
306 306 306 305 304 303 301 295 287 287 282 284 288 288 287 285 285 291 289 287 287 292 286 289 290 291 293 296 297 295 295 287 290 292 294 293 292 292 292 291 293 290 293 293
306 306 305 305 303 301 297 287 286 287 287 289 286 288 286 285 286 287 286 285 289 294 290 292 290 292 293 292 294 293 295 287 288 286 291 293 290 292 293 294 294 294 294 294
305 305 305 305 303 301 295 292 292 293 287 287 285 285 287 287 290 290 292 290 289 293 294 298 299 297 297 297 294 293 291 289 287 283 289 288 284 290 293 293 295 295 291 296
304 304 303 303 302 299 298 294 294 290 284 285 286 288 288 288 289 288 291 293 291 295 299 299 298 296 295 296 296 297 290 289 287 282 285 278 290 294 296 294 296 297 297 298
304 304 303 302 301 299 298 297 295 292 285 287 286 288 289 290 291 289 289 292 295 300 295 286 284 285 285 285 293 293 294 291 283 281 283 288 288 290 291 291 291 298 297 298
300 303 303 302 301 300 300 297 298 294 286 285 287 287 290 286 285 285 286 291 296 297 291 286 283 282 284 282 285 291 294 295 289 284 282 280 289 294 297 297 285 297 298 297
301 302 302 301 300 299 299 296 298 294 286 285 286 286 287 291 289 287 286 288 289 293 286 285 285 282 287 282 282 283 286 288 285 284 285 288 292 291 297 285 290 294 298 298
301 302 302 301 300 299 298 294 298 293 287 285 285 286 285 289 290 286 287 287 288 287 286 286 285 285 285 286 287 286 285 285 285 284 284 281 293 291 289 294 293 293 294 294
301 301 301 300 299 298 298 292 296 296 289 286 289 289 289 287 286 286 289 288 289 291 289 287 286 284 284 285 282 290 285 290 288 289 290 295 294 296 295 295 295 294 295 294
300 300 300 300 299 298 298 294 294 292 285 285 287 286 289 290 289 288 288 293 293 291 292 289 287 284 289 284 287 287 290 291 290 289 290 292 293 292 294 295 294 294 295 294
298 298 297 298 298 298 297 293 293 291 287 284 284 291 287 291 291 289 289 290 294 292 292 289 287 286 287 289 289 290 289 290 287 287 288 290 290 293 293 293 293 291 292 292
297 297 298 298 297 296 294 294 293 293 287 283 285 286 289 290 290 291 291 291 292 292 289 287 285 286 287 287 290 285 284 284 288 290 291 293 292 293 293 292 291 290 288 286
296 296 297 297 297 294 292 285 291 292 291 284 282 287 286 287 289 288 289 290 289 290 289 285 285 285 286 287 281 275 276 278 282 285 289 290 291 292 293 290 288 288 288 287
296 296 295 295 294 295 286 284 289 292 292 284 283 283 285 285 286 286 285 286 285 288 286 285 284 284 286 284 278 270 270 272 278 280 284 285 287 285 287 285 283 281 280 280
294 295 296 295 294 294 288 291 293 291 288 285 281 281 284 285 283 283 285 284 285 283 284 286 283 279 277 268 267 267 266 269 273 272 279 283 282 281 281 282 281 278 278 278
293 293 292 291 288 284 285 291 291 290 286 281 279 276 277 285 283 284 284 285 279 284 281 279 276 266 259 261 262 262 262 263 264 268 274 274 274 273 273 274 275 275 274 274
291 290 286 282 284 288 287 287 284 283 281 282 277 278 278 281 282 280 282 282 280 277 277 277 266 260 262 261 261 261 260 261 263 269 268 266 269 268 267 266 267 268 269 269
286 284 282 286 285 285 282 277 276 275 276 275 276 277 278 282 278 278 279 278 278 276 276 277 268 261 261 260 259 260 259 260 261 263 263 263 264 264 265 263 263 263 264 263
285 284 283 284 279 278 275 270 272 272 270 272 273 276 277 280 281 279 278 276 278 272 277 272 263 260 258 257 257 258 258 258 258 260 260 261 260 260 261 260 260 261 261 261
285 280 274 275 271 267 267 267 269 270 267 269 270 275 277 280 280 277 277 274 272 276 268 260 259 258 257 256 256 256 257 257 257 257 259 260 259 258 257 258 258 260 260 259
271 271 265 266 264 263 262 263 264 266 266 265 266 272 275 276 275 274 273 272 273 272 265 259 258 255 255 255 255 255 255 256 256 256 257 258 258 258 257 256 256 257 257 258
264 268 262 262 262 263 263 262 262 264 262 264 269 273 276 272 272 271 272 271 263 261 259 257 255 255 254 254 254 254 254 255 255 256 256 257 257 258 257 256 256 256 256 256
262 258 264 262 264 264 262 260 261 261 259 262 265 272 272 267 267 266 259 265 261 257 256 255 256 255 254 253 254 254 254 255 255 256 256 256 256 255 256 258 256 256 255 255
262 259 257 257 258 258 259 258 258 259 259 267 270 267 264 267 265 259 255 256 255 254 255 255 255 253 253 253 254 254 254 254 254 255 255 255 256 257 257 256 256 255 256 255

GFSNW_sfc_thetae_111.txt.gz
Theta_e
310 310 310 311 310 308 303 293 285 301 305 288 285 282 284 290 288 289 286 286 285 285 286 283 288 288 290 295 297 294 297 292 285 288 292 294 295 293 293 286 282 283 282 282
310 310 310 310 309 307 295 287 288 300 298 279 278 284 285 286 286 286 285 283 286 287 285 281 286 288 294 296 295 294 296 286 284 284 288 291 292 293 295 291 287 284 280 282
309 309 310 309 308 305 293 286 282 287 291 284 283 279 281 281 287 286 287 285 287 284 283 286 283 284 289 295 296 298 298 288 286 283 287 291 289 291 294 293 285 285 286 286
308 309 309 308 307 305 296 286 281 281 281 277 282 283 282 281 279 286 287 284 285 283 277 283 283 286 288 292 296 296 295 285 288 290 291 292 291 291 291 290 291 286 289 288
308 308 308 305 304 304 293 283 282 284 276 283 282 283 277 281 282 283 282 281 285 285 282 283 279 286 288 288 295 296 296 286 289 287 290 291 289 291 292 292 293 292 292 289
308 307 306 305 304 299 288 288 289 284 284 279 280 280 280 281 284 285 287 286 285 284 286 288 289 291 291 291 287 287 293 287 286 284 288 289 284 289 291 292 294 293 289 293
307 306 305 304 303 299 290 289 289 280 279 280 281 283 284 283 284 283 287 288 286 291 294 293 292 291 290 290 290 290 286 288 285 281 285 279 287 295 295 293 294 296 296 295
303 304 304 303 304 302 295 293 290 282 280 279 280 282 282 284 285 285 287 289 291 296 293 286 282 282 285 287 290 291 295 289 282 281 283 283 284 289 291 290 291 297 296 296
304 304 304 302 303 301 294 292 292 286 280 276 282 280 283 275 278 279 285 287 291 293 289 284 279 279 284 282 286 295 294 294 286 282 280 278 284 289 297 296 286 297 298 297
304 304 302 303 302 300 293 291 292 285 278 283 281 278 281 287 282 279 284 286 287 291 285 281 279 280 284 281 281 283 284 284 284 283 276 279 286 289 298 285 286 291 297 298
303 303 302 303 301 300 292 292 291 286 279 280 286 287 287 288 289 284 286 286 285 285 282 284 284 283 284 283 283 286 284 282 282 279 272 277 287 292 289 290 287 287 290 294
303 302 301 301 300 299 295 287 293 291 283 283 288 288 290 288 288 287 287 285 286 288 285 284 285 283 283 283 281 287 283 286 283 284 282 288 288 288 290 289 288 288 288 289
301 301 301 300 300 299 295 290 290 287 285 284 285 284 289 291 290 290 287 287 290 290 291 287 285 280 283 282 282 283 284 285 285 283 282 283 286 288 290 290 289 288 288 289
300 300 299 299 299 298 295 289 290 287 285 279 282 291 287 291 291 289 289 288 289 290 290 286 285 284 284 283 285 283 278 282 281 279 281 283 286 287 288 288 288 287 286 287
299 298 298 297 297 296 293 291 291 291 281 275 281 283 286 288 290 289 289 288 286 285 285 284 284 284 284 284 280 269 271 269 275 278 276 277 285 283 287 286 285 284 284 283
298 298 297 296 296 295 288 283 286 288 290 283 277 280 284 283 288 288 288 288 286 285 285 285 284 285 284 277 268 268 268 269 271 271 273 276 280 280 281 281 280 281 281 282
297 297 296 296 295 289 284 283 287 291 289 281 275 272 279 281 285 285 285 285 285 284 285 284 283 279 279 270 265 264 265 265 270 269 272 278 275 275 278 278 278 277 275 275
295 295 296 296 294 290 282 285 292 288 284 276 269 273 276 281 277 279 285 283 285 283 284 280 276 270 265 257 261 262 262 264 267 265 271 272 273 271 270 273 275 273 272 272
293 293 293 285 282 276 278 291 290 285 278 268 266 265 267 279 278 281 283 284 278 282 276 271 268 258 251 256 257 258 259 259 260 263 267 267 266 266 264 265 266 268 268 268
292 284 276 271 274 289 287 277 273 273 270 270 273 269 274 277 276 275 279 281 278 273 273 270 259 255 259 258 258 258 258 259 260 261 262 262 262 263 262 260 261 262 263 264
278 272 270 277 286 276 268 266 266 264 264 265 266 269 272 278 270 272 279 277 278 272 272 268 259 255 257 257 257 258 258 259 259 260 261 261 261 262 261 260 260 260 260 261
278 276 274 271 268 264 266 260 263 262 259 263 262 267 272 273 276 274 276 275 275 268 269 264 256 257 256 255 255 256 257 257 257 258 259 259 259 260 260 260 260 260 261 262
273 267 263 265 260 259 254 254 257 256 260 261 261 261 267 272 276 273 274 271 269 271 261 256 255 256 255 254 255 255 256 256 257 257 258 259 258 258 258 258 259 260 260 260
263 259 257 255 251 251 252 252 254 261 263 259 260 257 264 266 269 273 270 270 269 263 259 256 255 254 254 254 254 254 254 255 255 256 257 257 258 258 257 257 258 259 258 259
256 258 253 254 257 257 256 257 259 260 259 258 259 260 267 262 265 267 269 266 258 257 257 255 255 255 254 253 253 254 253 254 255 255 256 256 257 257 258 257 258 258 259 258
255 254 256 255 254 254 256 256 257 259 258 257 258 255 259 259 258 260 256 260 257 255 253 255 255 254 254 253 253 254 254 254 255 255 256 256 256 257 257 258 257 258 258 258
255 257 254 254 254 255 257 256 257 259 256 260 256 258 255 259 257 254 253 254 254 253 254 255 255 253 253 253 253 254 254 254 254 255 256 256 257 258 257 256 256 257 259 258

GFSNW_sfc_thetae_114.txt.gz
Theta_e
308 309 311 311 310 309 304 293 286 302 305 288 288 283 284 290 287 288 286 286 285 283 286 287 287 285 288 293 294 290 294 289 282 287 293 294 295 292 292 286 283 282 281 283
308 309 310 310 309 307 298 289 291 301 300 281 283 285 285 287 286 284 284 284 286 287 284 281 285 289 291 293 295 291 295 288 282 284 288 291 290 293 294 293 286 285 282 284
309 309 309 308 308 306 295 290 285 286 290 287 285 283 282 281 287 286 286 284 286 284 284 285 281 284 288 292 293 298 297 288 286 282 285 289 288 291 293 292 286 286 286 288
309 309 308 307 306 305 293 285 282 285 281 280 284 284 283 281 279 285 286 284 284 282 275 280 281 284 286 289 293 295 295 287 287 288 289 290 290 291 292 291 291 286 289 289
309 309 308 306 306 302 289 282 282 281 282 284 284 285 279 282 282 283 282 281 284 284 279 282 279 284 285 286 291 290 294 286 289 285 289 290 287 291 292 293 293 293 292 288
308 308 307 306 304 298 287 286 286 285 283 278 280 278 281 282 284 284 286 285 284 282 285 286 285 287 288 288 287 288 286 285 285 282 286 287 283 288 291 291 294 293 289 294
308 307 307 305 303 298 289 287 285 281 278 280 280 283 283 283 284 282 285 287 284 287 291 290 288 288 288 288 288 290 284 283 281 278 285 277 287 293 294 293 294 296 296 295
307 306 304 303 302 301 295 291 288 281 278 280 282 284 283 283 285 283 285 286 288 293 290 282 279 281 284 284 286 287 288 285 278 277 281 284 285 287 291 290 291 296 296 298
305 304 303 302 303 301 295 293 292 287 281 277 282 280 283 276 272 273 284 285 289 291 286 283 269 269 272 272 282 289 287 288 283 281 280 278 287 288 297 296 286 297 298 297
304 303 304 303 302 301 295 290 290 287 281 282 282 279 280 283 279 275 283 286 286 287 282 280 275 277 281 272 278 284 284 284 280 281 282 282 286 289 298 285 287 294 298 298
304 304 303 302 301 299 293 289 290 286 279 282 285 287 286 285 282 278 281 283 285 285 281 278 274 276 280 280 283 284 284 283 283 284 281 279 287 294 290 292 286 288 290 296
303 303 302 301 300 299 295 288 291 290 284 284 288 288 289 288 288 285 285 282 284 285 283 282 283 283 284 281 278 287 283 287 284 287 285 286 291 287 290 288 288 288 289 292
302 302 302 301 300 299 294 288 288 287 283 284 283 284 289 291 290 291 288 287 291 290 291 286 286 283 282 280 280 284 285 282 286 285 283 282 284 287 287 289 288 287 288 289
300 300 300 299 298 298 294 287 287 285 279 273 279 291 287 291 291 290 290 288 290 289 290 285 285 283 285 282 282 282 273 275 277 282 280 282 284 281 282 286 286 286 285 286
299 299 299 298 297 295 290 287 287 287 281 274 280 283 284 286 290 289 289 288 286 285 284 283 283 285 284 283 277 266 268 265 269 274 272 273 280 280 281 281 281 282 283 282
298 298 297 297 296 294 285 280 285 288 286 277 271 279 283 283 287 288 288 288 286 285 284 285 285 284 281 276 265 265 265 266 267 267 270 270 275 278 278 278 277 277 279 281
297 298 297 297 295 289 283 279 286 291 286 275 276 272 278 281 284 285 285 285 285 284 285 283 281 270 272 266 261 261 261 262 264 266 267 275 273 271 273 277 276 275 274 273
297 297 296 295 294 290 282 284 292 287 279 273 267 270 272 280 274 275 285 283 284 283 281 275 271 263 262 255 258 259 259 260 264 261 264 269 271 269 268 270 272 270 270 270
295 294 291 285 281 278 277 291 289 281 277 266 266 267 266 277 276 278 278 283 278 280 273 267 265 257 251 255 256 256 257 257 258 260 265 264 265 265 264 265 265 267 267 267
292 283 277 274 275 288 285 276 272 271 266 266 271 270 270 277 274 270 274 279 276 272 270 266 258 255 258 257 257 257 257 257 258 257 259 259 260 263 262 261 262 263 264 264
277 270 272 278 283 276 268 264 265 262 261 262 261 266 270 276 268 267 277 272 275 269 268 264 257 255 257 257 256 257 257 257 258 258 259 260 260 260 262 262 261 261 262 262
276 275 273 270 266 265 264 254 259 259 257 259 258 261 267 270 276 271 272 270 271 264 267 262 256 257 256 255 255 255 256 256 256 258 258 259 259 258 259 260 260 261 262 263
272 267 262 264 258 259 254 251 255 254 258 258 258 258 262 267 274 268 268 265 265 268 260 256 256 256 255 255 255 254 256 256 256 256 258 258 258 258 258 258 259 260 260 261
261 259 257 254 251 250 249 250 250 257 260 257 259 256 258 261 266 266 262 265 265 259 257 256 255 254 254 254 254 254 254 255 255 255 256 257 258 258 258 258 258 259 259 259
255 257 252 252 254 254 253 253 252 256 257 258 259 260 265 257 259 260 262 259 253 254 255 253 254 254 254 253 253 254 254 254 254 255 255 256 257 258 258 258 258 259 259 259
255 254 253 251 252 252 253 252 254 258 258 258 259 258 258 256 253 255 250 255 255 254 249 252 255 254 254 253 253 254 254 254 255 255 256 256 256 257 257 258 257 258 258 258
254 253 248 249 249 252 253 254 257 260 257 260 260 260 255 257 253 249 249 251 250 250 251 253 254 254 254 254 254 254 254 254 255 255 256 256 257 258 257 256 256 258 258 258

GFSNW_sfc_thetae_117.txt.gz
Theta_e
307 307 307 308 307 305 301 294 286 305 306 290 289 284 283 290 286 287 286 285 283 284 287 284 285 283 286 292 293 288 292 288 279 284 293 296 295 292 292 286 281 283 280 284
307 307 308 308 307 307 299 291 294 304 302 283 285 287 285 287 285 286 285 284 286 286 285 282 285 286 290 292 292 289 293 286 280 278 284 291 291 293 293 292 288 284 279 285
307 307 308 308 308 308 299 294 286 291 290 286 286 284 282 282 287 285 285 285 286 284 283 284 285 288 288 291 292 296 296 285 282 278 279 285 286 290 292 291 286 286 286 288
307 307 308 308 308 307 294 288 285 286 282 281 286 283 283 282 280 285 285 284 284 282 281 280 281 286 286 289 294 294 294 285 286 287 287 287 289 287 289 288 290 286 289 289
305 309 308 307 307 301 290 285 286 286 283 286 285 286 282 282 282 282 282 282 283 283 280 283 280 284 284 284 289 290 293 283 287 284 288 288 286 289 290 290 290 289 290 290
308 308 307 306 303 298 287 286 286 287 287 285 283 278 283 282 284 284 285 285 284 282 283 285 287 287 287 287 286 286 286 285 282 276 285 284 282 286 288 289 292 293 288 293
307 306 305 304 302 297 290 286 287 285 278 283 280 282 283 283 283 283 285 286 284 286 289 290 288 287 286 285 285 288 281 279 275 271 276 272 283 290 292 289 291 294 295 296
307 305 305 304 303 301 292 291 287 282 277 280 282 283 282 284 285 283 285 285 287 291 288 282 277 280 280 278 285 285 287 282 272 268 265 279 281 285 287 287 288 294 293 295
305 305 305 304 302 300 292 289 289 285 283 277 282 282 284 278 271 277 282 289 288 289 283 273 272 269 268 268 279 286 286 286 279 266 265 268 282 288 293 293 284 295 295 295
305 304 304 303 302 300 292 288 288 286 280 281 281 280 281 282 279 276 284 285 287 287 282 278 268 267 276 270 276 280 281 281 277 276 271 276 284 288 294 283 286 290 297 297
304 304 304 302 301 299 292 287 289 285 283 283 282 285 282 282 280 276 282 282 284 283 280 273 270 268 274 272 277 280 280 279 278 279 276 274 287 289 288 292 287 287 291 298
304 303 302 302 301 300 295 286 289 290 284 283 284 288 288 289 287 284 282 279 279 284 282 273 270 271 280 277 275 283 279 284 282 283 281 285 287 283 285 285 286 288 288 290
303 302 302 301 300 299 294 287 286 285 280 283 282 283 288 291 291 291 285 285 287 286 288 281 281 281 278 272 279 279 284 277 282 283 281 278 280 282 281 282 284 286 287 287
301 301 300 299 299 297 294 286 286 284 279 276 282 290 287 291 291 291 290 289 290 290 290 285 284 283 286 280 281 280 273 272 272 281 278 277 281 277 277 279 282 281 284 283
299 299 298 298 297 295 291 288 288 287 283 277 280 284 286 287 289 289 289 289 287 285 284 283 282 285 284 282 276 265 266 263 266 272 268 267 271 275 275 276 278 278 280 281
298 298 298 297 295 292 287 281 286 289 285 278 273 282 283 282 287 288 288 288 286 285 284 284 285 276 278 277 263 262 263 263 263 262 265 265 267 271 274 273 276 276 277 279
297 297 296 296 295 289 283 280 286 291 284 277 276 274 277 281 284 285 285 286 285 285 284 282 275 267 270 264 264 260 261 261 261 264 263 268 269 268 270 271 274 275 273 272
296 295 294 295 294 289 280 286 286 285 276 273 270 273 271 278 272 273 284 283 284 282 277 272 267 263 262 255 258 259 259 259 262 259 261 264 266 267 266 268 270 271 269 269
295 292 291 284 279 276 278 290 285 279 277 267 267 271 265 275 273 277 274 283 276 277 270 266 265 258 253 255 256 256 257 256 257 258 261 261 262 262 264 263 263 266 267 267
290 284 279 273 274 286 285 275 273 269 264 265 266 268 270 276 272 265 269 272 273 268 266 265 258 255 259 258 257 257 257 257 257 255 256 257 257 259 261 261 262 263 265 265
276 271 273 276 281 275 268 264 264 260 260 258 260 263 265 274 269 266 276 267 270 267 265 263 258 256 258 258 256 257 257 257 257 257 258 259 258 258 259 260 261 262 263 263
276 275 273 270 265 264 264 252 256 258 255 256 255 259 265 266 276 268 270 266 267 262 264 261 257 258 257 256 255 255 256 256 256 257 257 258 259 258 258 259 259 260 261 263
272 267 263 266 258 259 255 253 254 254 255 256 256 257 260 263 272 266 264 262 260 262 257 254 256 256 256 255 255 255 256 256 256 256 257 258 258 259 258 258 259 260 260 261
261 260 258 256 254 252 249 249 249 254 257 254 257 255 256 258 263 263 260 261 260 253 253 254 252 253 254 255 255 254 254 255 255 255 256 257 258 258 258 258 259 259 259 260
256 257 252 252 253 252 252 250 249 254 253 256 256 258 263 256 257 258 259 256 249 252 254 251 252 251 252 253 254 254 254 254 254 255 256 256 257 258 258 258 258 259 259 259
255 253 251 249 250 249 249 248 248 255 257 258 257 256 258 255 252 254 249 252 253 253 247 249 252 253 253 253 254 254 255 255 255 255 256 257 257 257 257 258 257 258 258 258
252 252 244 247 247 249 250 252 254 258 255 258 258 259 256 256 253 250 248 252 249 246 248 250 253 253 253 254 254 255 255 255 255 255 256 256 257 258 257 255 256 257 258 258

GFSNW_sfc_thetae_123.txt.gz
Theta_e
307 307 307 307 307 306 303 294 284 299 302 286 285 284 285 289 287 287 285 286 284 284 286 284 285 283 283 291 295 290 292 286 280 285 289 291 291 289 290 284 281 285 283 283
307 307 307 307 307 306 298 288 287 300 299 281 284 285 286 287 286 285 285 284 285 288 286 283 285 285 287 291 293 290 291 285 277 278 281 287 288 290 291 290 287 282 279 281
306 307 307 307 307 306 297 289 284 290 292 289 286 285 285 282 286 285 285 285 289 287 285 284 282 285 287 289 291 296 294 284 279 277 277 283 283 285 290 290 284 283 283 285
307 307 307 307 307 305 295 290 285 286 283 284 288 288 287 283 280 284 286 285 288 286 282 283 283 286 287 289 294 291 289 280 282 283 283 284 284 284 286 286 287 281 285 283
307 307 307 307 305 305 290 286 285 288 286 288 288 288 285 284 281 282 281 284 286 285 284 284 284 285 286 286 288 288 291 283 284 280 284 286 282 284 285 286 287 286 287 286
307 307 307 306 305 302 288 290 289 291 288 287 287 285 285 283 283 284 286 286 285 284 284 288 288 288 287 288 286 285 288 284 282 278 282 282 276 282 283 284 287 287 283 288
307 307 306 306 305 300 294 293 293 288 284 287 284 286 284 283 284 283 284 287 284 284 290 290 288 285 285 285 285 288 286 283 280 275 272 268 280 284 286 285 287 289 290 291
306 306 306 306 304 303 294 291 292 289 285 285 285 285 283 285 287 283 283 284 287 289 286 279 273 276 276 275 282 284 286 281 272 269 262 273 278 280 283 283 282 288 288 290
306 306 306 305 304 304 292 289 289 292 286 280 286 285 286 283 281 282 284 286 287 286 280 273 268 267 268 269 272 283 283 282 275 263 261 262 275 281 284 284 278 286 286 286
306 305 305 305 304 301 292 287 291 290 283 283 286 284 283 284 283 282 284 283 283 284 274 267 266 265 273 268 269 271 275 272 268 260 260 270 279 281 288 275 277 280 282 282
304 303 303 303 302 301 294 289 292 290 283 283 285 285 283 283 284 281 283 280 280 276 271 268 267 264 272 269 272 276 274 270 265 263 261 267 280 281 278 277 278 279 278 279
303 303 302 302 301 301 298 289 291 293 286 284 288 288 289 288 286 287 282 282 281 282 275 272 271 267 273 265 266 279 273 277 273 275 275 280 279 279 274 273 273 274 273 276
302 302 300 300 300 299 296 289 286 290 285 284 285 283 288 290 290 289 282 282 285 284 282 275 270 268 274 272 273 272 278 276 279 277 277 276 276 274 271 271 271 271 273 272
300 300 299 299 297 296 293 285 285 285 282 279 280 289 285 289 291 290 288 288 289 290 285 281 277 268 279 276 277 275 268 270 267 274 274 274 272 270 268 269 270 270 270 271
300 299 298 298 298 297 292 289 287 286 283 278 280 284 285 288 290 290 289 290 288 285 282 282 271 281 282 279 279 270 263 260 267 269 262 261 266 266 266 266 267 268 268 269
299 298 297 297 295 292 288 284 287 287 285 278 275 282 282 285 288 288 287 287 287 286 283 282 276 273 273 269 274 262 262 262 262 259 260 261 262 264 266 264 265 266 267 268
298 298 297 295 293 287 281 279 282 288 283 278 276 277 281 281 284 285 286 286 285 282 281 273 273 270 272 268 261 259 259 259 260 261 260 260 261 260 261 264 264 265 266 268
295 294 294 294 293 289 279 284 283 284 277 275 274 273 276 280 279 280 283 283 282 274 271 265 265 266 264 260 259 259 258 258 259 257 258 258 260 261 261 262 262 261 263 264
294 293 291 284 277 276 275 288 283 276 275 267 266 265 267 277 275 276 277 273 267 267 259 261 263 253 253 255 256 256 256 255 255 257 257 259 257 258 259 259 260 260 261 262
291 281 276 273 271 284 283 274 271 266 262 262 258 264 265 274 269 270 269 274 263 258 259 259 254 249 257 256 254 254 253 254 255 254 254 255 255 257 258 258 259 260 260 261
274 270 269 273 280 276 268 263 262 259 258 257 259 262 261 271 267 272 275 265 264 261 259 257 248 250 256 253 252 253 253 253 253 254 256 257 257 257 257 257 259 259 260 260
272 272 269 267 266 266 266 253 256 256 255 255 256 260 262 263 270 265 265 263 264 261 255 255 252 256 254 250 249 250 251 251 252 254 256 257 258 258 258 258 258 259 260 261
271 266 261 264 258 260 257 253 255 254 254 254 253 255 258 260 266 261 261 260 257 257 254 253 254 253 250 247 247 248 249 250 251 253 256 257 258 259 258 257 258 259 260 260
260 260 258 254 251 249 247 250 250 255 257 255 256 250 254 253 260 259 260 256 257 251 254 255 250 248 246 246 246 246 249 250 252 254 256 257 257 258 258 258 258 258 258 259
255 257 251 251 250 248 247 247 248 252 251 253 252 252 260 253 256 256 255 255 253 254 257 253 249 247 245 246 246 247 248 252 254 255 256 256 257 257 258 258 258 258 258 258
254 252 251 247 249 248 246 245 246 250 253 253 252 249 254 252 252 256 254 255 256 257 249 247 246 245 245 246 246 248 251 253 255 256 256 257 257 257 257 258 257 257 257 257
252 249 240 244 244 247 245 245 250 255 251 251 249 256 255 253 251 252 248 254 252 247 245 244 245 246 246 246 247 248 250 251 254 255 256 256 257 258 257 256 256 257 257 257